Regional Weather Roundup
Issued by NWS

Home | Current Version | Previous Version | Graphics & Text | Print | Product List | Glossary On
Versions: 1 2 3 4 5 6 7 8 9 10 11 12 13 14 15 16 17 18 19 20 21 22 23 24 25 26 27 28 29 30 31 32 33 34 35 36 37 38 39 40 41 42 43 44 45 46 47 48 49 50
000
ASUS45 KCYS 270110
RWRWY

WYOMING REGIONAL WEATHER ROUNDUP
NATIONAL WEATHER SERVICE CHEYENNE WY
600 PM MST MON JAN 26 2015

NOTE:  "FAIR" INDICATES FEW OR NO CLOUDS BELOW 12,000 FEET
WITH NO SIGNIFICANT WEATHER AND/OR OBSTRUCTIONS TO VISIBILITY.

WYZ001-270200-
YELLOWSTONE NATIONAL PARK

CITY           SKY/WX    TMP DP  RH WIND       PRES   REMARKS
LK YELLOWSTONE   N/A     25  22  88 CALM      30.34F
W YELLOWSTONE  NOT AVBL

$$
WYZ002>013-054>058-071-098>099-270200-
NORTHERN WYOMING

CITY           SKY/WX    TMP DP  RH WIND       PRES   REMARKS
JACKSON        CLEAR     21  21 100 CALM      30.33F
CODY           FAIR      39  30  70 S7        30.13F WCI  34
GREYBULL       FAIR      30  26  85 W3        30.14F
WORLAND        FAIR      28  24  85 SW5       30.14S WCI  23
SHERIDAN       FAIR      48  30  49 CALM      30.03S
BUFFALO          N/A     48  28  46 W12       30.09F
GILLETTE       FAIR      51  30  44 SW18      30.05F
HULETT           N/A    N/A N/A N/A MISG        N/A
NEWCASTLE      FAIR      43  30  61 N7        30.09R

$$
WYZ014>020-022>026-101>103-270200-
CENTRAL WYOMING

CITY           SKY/WX    TMP DP  RH WIND       PRES   REMARKS
BIG PINEY      FAIR      30  24  78 E8        30.32F WCI  22
PINEDALE       FAIR      27  23  86 W8        30.33F WCI  18
DUBOIS         FAIR      46  21  36 W6        30.24S
LANDER         FAIR      36  28  73 W7        30.20S WCI  30
RIVERTON       FAIR      37  26  64 N3        30.21S
CASPER         FAIR      46  28  49 SW21G26   30.18S
DOUGLAS        FAIR      46  26  45 NW7       30.15S

$$
WYZ021-027>030-104>119-270200-
SOUTHERN WYOMING

CITY           SKY/WX    TMP DP  RH WIND       PRES   REMARKS
EVANSTON       FAIR      44  29  55 E6        30.28F
KEMMERER       FAIR      39  30  70 CALM      30.31S
FORT BRIDGER   FAIR      46  34  64 CALM      30.32F
ROCK SPRINGS   FAIR      47  26  44 E3        30.29F
DIXON          FAIR      33  27  80 NE3       30.36S
RAWLINS        FAIR      38  27  64 SW9       30.31F WCI  31
SARATOGA       FAIR      36  28  75 S5        30.32S WCI  32
LARAMIE        FAIR      37  27  67 NE8       30.29F WCI  31
CHEYENNE       FAIR      53  21  28 NW9       30.22S
TORRINGTON     FAIR      54  28  36 W12       30.12R
PINE BLUFFS    FAIR      41  27  56 W5        30.18S

$$


USA.gov is the U.S. government's official web portal to all federal, state and local government web resources and services.